CW3642 Weather Reports


Display with metric or nautical units.
time (UTC)temp
F
wind
direction
speed
MPH
gust
MPH
rain 1hr
in
rain 24hr
in
rain mn
in
humidity
%
barometer
mb
20260906143240 72 26 0.0 0.0 0.00 0.00 0.00 70 1021.4
20260906141740 72 42 0.0 0.0 0.00 0.00 0.00 71 1021.4
20260906140740 71 19 0.0 0.0 0.00 0.00 0.00 74 1021.3
20260906135731 70 44 0.0 0.0 0.00 0.00 0.00 77 1021.3
20260906135231 69 60 0.0 0.0 0.00 0.00 0.00 80 1021.4
20260906134801 68 60 0.0 0.0 0.00 0.00 0.00 84 1021.4
20260906134231 67 60 0.0 0.0 0.00 0.00 0.00 85 1021.3
20260906133731 66 60 0.0 0.0 0.00 0.00 0.00 91 1021.2
20260906133231 65 60 0.0 0.0 0.00 0.00 0.00 94 1021.2
20260906132731 64 60 0.0 0.0 0.00 0.00 0.00 93 1021.3
20260906132231 62 60 0.0 0.0 0.00 0.00 0.00 93 1021.1
20260906131801 61 60 0.0 0.0 0.00 0.00 0.00 93 1021.0
20260906130301 59 60 0.0 0.0 0.00 0.00 0.00 93 1020.9
20260906125231 58 60 0.0 0.0 0.00 0.00 0.00 93 1020.9
20260906124731 57 60 0.0 0.0 0.00 0.00 0.00 93 1020.9
20260906124231 56 60 0.0 0.0 0.00 0.00 0.00 93 1020.8
20260906123731 55 60 0.0 0.0 0.00 0.00 0.00 93 1020.8
20260906123231 54 60 0.0 0.0 0.00 0.00 0.00 93 1020.6
20260906122731 52 60 0.0 0.0 0.00 0.00 0.00 93 1020.6
20260906122231 51 60 0.0 0.0 0.00 0.00 0.00 93 1020.5
20260906121731 50 60 0.0 0.0 0.00 0.00 0.00 93 1020.4
20260906120731 49 60 0.0 0.0 0.00 0.00 0.00 94 1020.4
20260906120231 49 60 0.0 0.0 0.00 0.00 0.00 94 1020.4
20260906115801 49 60 0.0 0.0 0.00 0.00 0.00 94 1020.3
20260906115231 49 60 0.0 0.0 0.00 0.00 0.00 94 1020.4
20260906114731 49 60 0.0 0.0 0.00 0.00 0.00 94 1020.4
20260906114231 49 60 0.0 0.0 0.00 0.00 0.00 94 1020.4
20260906113731 49 60 0.0 0.0 0.00 0.00 0.00 94 1020.4
20260906113231 49 60 0.0 0.0 0.00 0.00 0.00 94 1020.4
20260906112731 49 52 0.0 0.0 0.00 0.00 0.00 94 1020.3
20260906112231 49 52 0.0 0.0 0.00 0.00 0.00 94 1020.4
20260906111731 49 52 0.0 0.0 0.00 0.00 0.00 94 1020.3
20260906111231 48 52 0.0 0.0 0.00 0.00 0.00 94 1020.2
20260906110731 48 52 0.0 0.0 0.00 0.00 0.00 94 1020.3
20260906110231 48 52 0.0 0.0 0.00 0.00 0.00 94 1020.2
20260906105800 48 52 0.0 0.0 0.00 0.00 0.00 94 1020.3
20260906105301 48 52 0.0 0.0 0.00 0.00 0.00 94 1020.3
20260906104731 49 52 0.0 0.0 0.00 0.00 0.00 94 1020.3
20260906104231 49 52 0.0 0.0 0.00 0.00 0.00 94 1020.3
20260906103731 49 52 0.0 0.0 0.00 0.00 0.00 94 1020.4
20260906103231 49 52 0.0 0.0 0.00 0.00 0.00 94 1020.4
20260906102731 49 52 0.0 0.0 0.00 0.00 0.00 94 1020.4
20260906101731 49 52 0.0 0.0 0.00 0.00 0.00 94 1020.2
20260906101231 49 52 0.0 0.0 0.00 0.00 0.00 94 1020.2
20260906100731 49 52 0.0 0.0 0.00 0.00 0.00 94 1020.2
20260906095735 49 52 0.0 0.0 0.00 0.00 0.00 94 1020.1
20260906095234 49 52 0.0 0.0 0.00 0.00 0.00 94 1020.2
20260906094735 49 52 0.0 0.0 0.00 0.00 0.00 94 1020.1
20260906094235 49 52 0.0 0.0 0.00 0.00 0.00 94 1020.0
20260906093735 49 52 0.0 0.0 0.00 0.00 0.00 95 1020.0
20260906093234 49 52 0.0 0.0 0.00 0.00 0.00 94 1020.0
20260906092735 49 52 0.0 0.0 0.00 0.00 0.00 95 1019.9
20260906092234 50 52 0.0 0.0 0.00 0.00 0.00 94 1019.8
20260906091734 50 52 0.0 0.0 0.00 0.00 0.00 94 1019.8
20260906091234 50 52 0.0 0.0 0.00 0.00 0.00 94 1019.8
20260906090734 50 52 0.0 0.0 0.00 0.00 0.00 94 1019.8
20260906090235 50 52 0.0 0.0 0.00 0.00 0.00 94 1019.7
20260906085735 50 52 0.0 0.0 0.00 0.00 0.00 94 1019.8
20260906085235 50 52 0.0 0.0 0.00 0.00 0.00 94 1019.7
20260906084735 50 52 0.0 0.0 0.00 0.00 0.00 94 1019.7
20260906083734 50 52 0.0 0.0 0.00 0.00 0.00 94 1019.6
20260906083234 50 52 0.0 0.0 0.00 0.00 0.00 94 1019.6
20260906082734 50 52 0.0 0.0 0.00 0.00 0.00 94 1019.5
20260906081734 50 52 0.0 0.0 0.00 0.00 0.00 95 1019.2
20260906081235 50 52 0.0 0.0 0.00 0.00 0.00 95 1019.2
20260906080735 50 52 0.0 0.0 0.00 0.00 0.00 95 1019.2
20260906080235 50 52 0.0 0.0 0.00 0.00 0.00 94 1019.1
20260906075734 50 52 0.0 0.0 0.00 0.00 0.00 94 1019.1
20260906073235 51 52 0.0 0.0 0.00 0.00 0.00 94 1019.1
20260906072734 51 52 0.0 0.0 0.00 0.00 0.00 94 1019.0
20260906072234 51 52 0.0 0.0 0.00 0.00 0.00 95 1019.1
20260906071734 51 52 0.0 0.0 0.00 0.00 0.00 94 1019.1
20260906071234 51 52 0.0 0.0 0.00 0.00 0.00 94 1019.0
20260906070734 52 52 0.0 0.0 0.00 0.00 0.00 94 1019.2
20260906070234 52 52 0.0 0.0 0.00 0.00 0.00 94 1019.1
20260906065235 52 52 0.0 0.0 0.00 0.00 0.00 94 1019.0
20260906064235 52 52 0.0 0.0 0.00 0.00 0.00 94 1019.1
20260906063735 52 41 0.0 0.0 0.00 0.00 0.00 94 1019.1
20260906063234 52 41 0.0 0.0 0.00 0.00 0.00 94 1019.2
20260906062734 52 78 0.0 0.0 0.00 0.00 0.00 94 1019.2
20260906062234 52 78 0.0 0.0 0.00 0.00 0.00 94 1019.3
20260906061734 52 78 0.0 0.0 0.00 0.00 0.00 94 1019.3
20260906061234 52 78 0.0 0.0 0.00 0.00 0.00 94 1019.2
20260906060734 52 78 0.0 0.0 0.00 0.00 0.00 94 1019.1
20260906055750 53 78 0.0 0.0 0.00 0.00 0.00 94 1019.1
20260906055250 53 78 0.0 0.0 0.00 0.00 0.00 94 1019.0
20260906054250 53 78 0.0 0.0 0.00 0.00 0.00 94 1019.0
20260906053750 53 78 0.0 0.0 0.00 0.00 0.00 94 1019.0
20260906053250 53 78 0.0 0.0 0.00 0.00 0.00 94 1018.9
20260906052750 53 78 0.0 0.0 0.00 0.00 0.00 94 1018.9
20260906052250 53 78 0.0 0.0 0.00 0.00 0.00 94 1018.8
20260906051750 53 78 0.0 0.0 0.00 0.00 0.00 94 1018.8
20260906051250 54 78 0.0 0.0 0.00 0.00 0.00 94 1018.9
20260906050750 54 78 0.0 0.0 0.00 0.00 0.00 94 1018.8
20260906050250 54 78 0.0 0.0 0.00 0.00 0.00 94 1018.8
20260906045250 54 78 0.0 0.0 0.00 0.00 0.00 94 1018.9
20260906044750 54 78 0.0 0.0 0.00 0.00 0.00 94 1018.9
20260906044250 54 78 0.0 0.0 0.00 0.00 0.00 94 1018.8
20260906043750 54 78 0.0 0.0 0.00 0.00 0.00 94 1018.8
20260906043250 54 78 0.0 0.0 0.00 0.00 0.00 93 1018.7
20260906042750 55 78 0.0 0.0 0.00 0.00 0.00 93 1018.6
20260906042250 55 78 0.0 0.0 0.00 0.00 0.00 93 1018.7
20260906041750 55 78 0.0 0.0 0.00 0.00 0.00 93 1018.7
20260906041250 55 78 0.0 0.0 0.00 0.00 0.00 93 1018.7
20260906035750 56 78 0.0 0.0 0.00 0.00 0.00 93 1018.6
20260906035250 56 78 0.0 0.0 0.00 0.00 0.00 93 1018.6
20260906034750 56 78 0.0 0.0 0.00 0.00 0.00 93 1018.6
20260906033250 56 78 0.0 0.0 0.00 0.00 0.00 92 1018.6
20260906032750 57 78 0.0 0.0 0.00 0.00 0.00 92 1018.5
20260906032250 57 78 0.0 0.0 0.00 0.00 0.00 92 1018.5
20260906031750 57 78 0.0 0.0 0.00 0.00 0.00 92 1018.4
20260906031250 57 78 0.0 0.0 0.00 0.00 0.00 92 1018.3
20260906030750 57 78 0.0 0.0 0.00 0.00 0.00 92 1018.2
20260906025750 58 78 0.0 0.0 0.00 0.00 0.00 92 1018.3
20260906025250 58 53 0.0 0.0 0.00 0.00 0.00 92 1018.2
20260906024750 58 53 0.0 0.0 0.00 0.00 0.00 91 1018.1
20260906024250 58 53 0.0 0.0 0.00 0.00 0.00 92 1018.1
20260906023750 58 53 0.0 0.0 0.00 0.00 0.00 92 1018.1
20260906022750 59 34 0.0 0.0 0.00 0.00 0.00 91 1018.1
20260906022250 59 34 0.0 0.0 0.00 0.00 0.00 91 1018.0
20260906020750 59 34 0.0 0.0 0.00 0.00 0.00 91 1017.8
20260906015803 60 34 0.0 0.0 0.00 0.00 0.00 90 1017.9
20260906015234 60 34 0.0 0.0 0.00 0.00 0.00 90 1017.9
20260906014733 60 34 0.0 0.0 0.00 0.00 0.00 89 1017.9
20260906014233 60 34 0.0 0.0 0.00 0.00 0.00 89 1017.9
20260906013734 61 34 0.0 0.0 0.00 0.00 0.00 88 1018.0
20260906013234 61 34 0.0 0.0 0.00 0.00 0.00 87 1017.8
20260906012733 61 34 0.0 0.0 0.00 0.00 0.00 87 1017.7
20260906012233 62 34 0.0 0.0 0.00 0.00 0.00 86 1017.9
20260906011734 62 34 0.0 0.0 0.00 0.00 0.00 86 1017.7
20260906011233 63 34 0.0 0.0 0.00 0.00 0.00 86 1017.7
20260906010233 64 34 0.0 0.0 0.00 0.00 0.00 83 1017.6
20260906005803 64 34 0.0 0.0 0.00 0.00 0.00 83 1017.7
20260906004733 65 34 0.0 0.0 0.00 0.00 0.00 81 1017.6
20260906004234 66 34 0.0 0.0 0.00 0.00 0.00 80 1017.7
20260906003733 66 34 0.0 0.0 0.00 0.00 0.00 80 1017.6
20260906003234 67 34 0.0 0.0 0.00 0.00 0.00 79 1017.7
20260906002733 67 34 0.0 0.0 0.00 0.00 0.00 79 1017.7
20260906001734 68 34 0.0 0.0 0.00 0.00 0.00 77 1017.7
20260906001234 69 34 0.0 0.0 0.00 0.00 0.00 76 1017.7
20260906000733 69 34 0.0 0.0 0.00 0.00 0.00 76 1017.5
20260906000234 69 34 0.0 0.0 0.00 0.00 0.00 76 1017.5
20260905235733 70 34 0.0 0.0 0.00 0.00 0.00 73 1017.7
20260905235233 70 40 0.0 0.0 0.00 0.00 0.00 73 1017.5
20260905234733 70 5 0.0 0.0 0.00 0.00 0.00 72 1017.5
20260905234234 71 338 0.0 0.0 0.00 0.00 0.00 73 1017.4
20260905233734 71 45 0.0 0.0 0.00 0.00 0.00 71 1017.5
20260905233233 72 5 0.0 0.0 0.00 0.00 0.00 72 1017.5
20260905232733 72 39 0.0 0.0 0.00 0.00 0.00 71 1017.4
20260905232233 72 360 0.0 0.0 0.00 0.00 0.00 69 1017.3
20260905231734 72 26 0.0 0.0 0.00 0.00 0.00 68 1017.3
20260905231233 73 342 0.0 0.0 0.00 0.00 0.00 67 1017.3
20260905230733 73 24 0.0 0.0 0.00 0.00 0.00 66 1017.4
20260905225733 73 344 0.0 0.0 0.00 0.00 0.00 66 1017.3
20260905225233 73 41 0.0 0.0 0.00 0.00 0.00 64 1017.2
20260905224733 74 17 0.0 0.0 0.00 0.00 0.00 66 1017.1
20260905224233 74 18 0.0 0.0 0.00 0.00 0.00 64 1017.1
20260905223733 74 11 0.0 0.0 0.00 0.00 0.00 65 1017.0
20260905222733 74 332 0.0 0.0 0.00 0.00 0.00 64 1017.0
20260905222234 75 65 0.0 0.0 0.00 0.00 0.00 65 1016.9
20260905221733 75 360 0.0 0.0 0.00 0.00 0.00 65 1016.9
20260905221233 75 14 0.0 0.0 0.00 0.00 0.00 63 1016.9
20260905220733 75 319 0.0 0.0 0.00 0.00 0.00 62 1016.9
20260905215800 76 19 0.0 0.0 0.00 0.00 0.00 60 1016.8
20260905215300 76 327 0.0 0.0 0.00 0.00 0.00 60 1016.9
20260905214800 76 347 0.0 0.0 0.00 0.00 0.00 60 1016.8
20260905214300 76 56 0.0 0.0 0.00 0.00 0.00 58 1016.8
20260905213730 77 335 0.0 0.0 0.00 0.00 0.00 59 1016.9
20260905213300 77 355 0.0 0.0 0.00 0.00 0.00 58 1016.9
20260905212730 77 15 0.0 0.0 0.00 0.00 0.00 59 1016.8
20260905212230 77 327 0.0 0.0 0.00 0.00 0.00 58 1016.9
20260905211800 77 329 0.0 0.0 0.00 0.00 0.00 58 1016.9
20260905211230 77 11 0.0 0.0 0.00 0.00 0.00 59 1016.9
20260905210800 77 26 0.0 0.0 0.00 0.00 0.00 60 1016.9
20260905210230 77 32 0.0 0.0 0.00 0.00 0.00 58 1016.8
20260905205300 77 330 0.0 0.0 0.00 0.00 0.00 58 1017.0
20260905204800 77 340 0.0 0.0 0.00 0.00 0.00 58 1017.1
20260905203800 77 25 0.0 0.0 0.00 0.00 0.00 57 1017.3
20260905203230 78 331 0.0 0.0 0.00 0.00 0.00 59 1017.2
20260905201800 77 78 0.0 0.0 0.00 0.00 0.00 57 1017.1
20260905201230 78 5 0.0 0.0 0.00 0.00 0.00 57 1017.2
20260905200800 78 348 0.0 0.0 0.00 0.00 0.00 59 1017.1
20260905195800 78 313 0.0 0.0 0.00 0.00 0.00 62 1017.1
20260905195300 77 360 0.0 0.0 0.00 0.00 0.00 62 1017.1
20260905194800 77 311 0.0 0.0 0.00 0.00 0.00 62 1017.1
20260905194300 77 31 0.0 0.0 0.00 0.00 0.00 61 1017.2
20260905193300 78 16 0.0 0.0 0.00 0.00 0.00 60 1017.3
20260905192800 78 342 0.0 0.0 0.00 0.00 0.00 63 1017.5
20260905192230 78 314 0.0 0.0 0.00 0.00 0.00 62 1017.4
20260905191800 77 329 0.0 0.0 0.00 0.00 0.00 63 1017.4
20260905191230 77 254 0.0 0.0 0.00 0.00 0.00 65 1017.6
20260905190800 77 333 0.0 0.0 0.00 0.00 0.00 64 1017.7
20260905190230 77 14 0.0 0.0 0.00 0.00 0.00 64 1017.7
20260905185800 77 22 0.0 0.0 0.00 0.00 0.00 66 1017.8
20260905185300 77 355 0.0 0.0 0.00 0.00 0.00 66 1017.7
20260905184300 78 339 0.0 0.0 0.00 0.00 0.00 65 1017.7
20260905183800 77 342 0.0 0.0 0.00 0.00 0.00 64 1017.7
20260905183300 77 360 0.0 0.0 0.00 0.00 0.00 65 1017.6
20260905182730 77 19 0.0 0.0 0.00 0.00 0.00 66 1017.7
20260905182230 78 339 0.0 0.0 0.00 0.00 0.00 64 1017.5
20260905181800 78 40 0.0 0.0 0.00 0.00 0.00 63 1017.7
20260905180730 78 5 0.0 0.0 0.00 0.00 0.00 62 1017.8
20260905175743 78 19 0.0 0.0 0.00 0.00 0.00 63 1017.6
20260905175243 78 34 0.0 0.0 0.00 0.00 0.00 61 1017.4
20260905174743 78 45 0.0 0.0 0.00 0.00 0.00 59 1017.6
20260905174243 78 16 0.0 0.0 0.00 0.00 0.00 59 1017.7
20260905173743 78 351 0.0 0.0 0.00 0.00 0.00 59 1017.7
20260905172751 77 316 0.0 0.0 0.00 0.00 0.00 61 1017.7
20260905172251 77 349 0.0 0.0 0.00 0.00 0.00 58 1017.7
20260905171751 78 355 0.0 0.0 0.00 0.00 0.00 58 1017.8
20260905171251 78 28 0.0 0.0 0.00 0.00 0.00 57 1017.8
20260905170751 78 54 0.0 0.0 0.00 0.00 0.00 57 1017.8
20260905170251 77 321 0.0 0.0 0.00 0.00 0.00 59 1017.8
20260905165751 77 40 0.0 0.0 0.00 0.00 0.00 57 1017.9
20260905164751 77 355 0.0 0.0 0.00 0.00 0.00 60 1017.8
20260905164250 77 79 0.0 0.0 0.00 0.00 0.00 57 1017.8
20260905163751 77 51 0.0 0.0 0.00 0.00 0.00 60 1017.9
20260905162750 77 53 0.0 0.0 0.00 0.00 0.00 61 1018.0
20260905162250 77 61 0.0 0.0 0.00 0.00 0.00 63 1018.0
20260905161750 77 75 0.0 0.0 0.00 0.00 0.00 62 1018.0
20260905161251 77 10 0.0 0.0 0.00 0.00 0.00 61 1018.1
20260905160751 77 75 0.0 0.0 0.00 0.00 0.00 60 1018.1
20260905160251 76 65 0.0 0.0 0.00 0.00 0.00 62 1018.0
20260905155751 76 28 0.0 0.0 0.00 0.00 0.00 61 1018.0
20260905154751 76 198 0.0 0.0 0.00 0.00 0.00 62 1018.3
20260905154250 76 175 0.0 0.0 0.00 0.00 0.00 63 1018.3
20260905153751 76 214 0.0 0.0 0.00 0.00 0.00 62 1018.1
20260905153251 75 5 0.0 0.0 0.00 0.00 0.00 65 1017.9
20260905152751 75 94 0.0 0.0 0.00 0.00 0.00 65 1017.9
20260905152250 75 61 0.0 0.0 0.00 0.00 0.00 66 1017.9
20260905151750 75 69 0.0 0.0 0.00 0.00 0.00 66 1017.9
20260905151251 74 44 0.0 0.0 0.00 0.00 0.00 65 1017.9
20260905150751 74 360 0.0 0.0 0.00 0.00 0.00 67 1017.8
20260905150251 74 34 0.0 0.0 0.00 0.00 0.00 67 1017.8
20260905145751 74 12 0.0 0.0 0.00 0.00 0.00 67 1017.6
20260905145251 74 38 0.0 0.0 0.00 0.00 0.00 68 1017.6
20260905144751 74 105 0.0 0.0 0.00 0.00 0.00 68 1017.5
20260905144251 74 80 0.0 0.0 0.00 0.00 0.00 68 1017.6
20260905143750 73 125 0.0 0.0 0.00 0.00 0.00 70 1017.6